Overview Statistics Trail Chart Weather Telemetry Raw packets
 

This is the latest recevied weather packets stored in our database for station/object KN6DHD. If no packets are shown the sender has not sent any weather packets the latest 10 day(s).

<< 23 24 25 26 27 28 29 >>
Time Temp. Humidity Pressure Rain* Wind** Luminosity Snow
1777592228 29.44° C 46% 1011.3 hPa 0 mm - 402 W/m² -
1777591924 29.44° C 45% 1011.2 hPa 0 mm - 423 W/m² -
1777591621 29.44° C 46% 1011.4 hPa 0 mm - 434 W/m² -
1777591317 30° C 45% 1011.3 hPa 0 mm - 407 W/m² -
1777591013 30° C 46% 1011.4 hPa 0 mm - 415 W/m² -
1777590708 30° C 46% 1011.3 hPa 0 mm - 453 W/m² -
1777590405 30° C 45% 1011.4 hPa 0 mm - 475 W/m² -
1777590102 29.44° C 44% 1011.4 hPa 0 mm - 483 W/m² -
1777589798 30.56° C 42% 1011.7 hPa 0 mm - 502 W/m² -
1777589498 30° C 41% 1011.8 hPa 0 mm - 491 W/m² -
1777589192 30° C 42% 1011.7 hPa 0 mm - 491 W/m² -
1777588889 30° C 41% 1011.9 hPa 0 mm - 498 W/m² -
1777588585 30° C 41% 1011.8 hPa 0 mm - 531 W/m² -
1777588280 29.44° C 41% 1011.9 hPa 0 mm - 606 W/m² -
1777587975 29.44° C 40% 1011.9 hPa 0 mm - 687 W/m² -
1777587671 29.44° C 42% 1012.1 hPa 0 mm - 725 W/m² -
1777587366 29.44° C 42% 1012.1 hPa 0 mm - 691 W/m² -
1777587062 28.89° C 41% 1012.2 hPa 0 mm - 683 W/m² -
1777586758 28.89° C 42% 1012.3 hPa 0 mm - 671 W/m² -
1777586454 28.89° C 41% 1012.3 hPa 0 mm - 673 W/m² -
1777586148 29.44° C 41% 1012.6 hPa 0 mm - 734 W/m² -
1777585847 28.89° C 40% 1012.5 hPa 0 mm - 766 W/m² -
1777585546 28.89° C 42% 1012.4 hPa 0 mm - 778 W/m² -
1777585243 28.89° C 43% 1012.8 hPa 0 mm - 768 W/m² -
1777584938 28.33° C 42% 1012.7 hPa 0 mm - 746 W/m² -

* Rain latest hour (hover to see other rain measurements)
** Current wind speed in m/s (hover to see current wind gust speed)